Home > Weather > Shreveport > Past weeks

Flag for USA Weather for the Past 2 Weeks in Shreveport, Louisiana, USA

Now
75 °F

Sunny.


Feels Like: 77 °F
Forecast: 55 / 78 °F
Wind: 9 mph from North

Location: Shreveport Regional Airport

Current Time: May 5, 2016 at 1:07:04 PM

Latest Report: May 5, 2016 at 11:56 AM


Visibility: 10 mi

Pressure: 30.03 "Hg

Humidity: 36%

Dew Point: 46 °F

Location of ShreveportLocation

Historic Weather in Shreveport — Graph

°F

Shreveport Temperature Yesterday

Maximum temperature yesterday: 81 °F (at 3:56 PM)
Minimum temperature yesterday: 55 °F (at 5:56 AM)
Average temperature yesterday: 69 °F

High & Low Weather Summary for the Past Weeks

 TemperatureHumidityPressure
High86 °F (Apr 26, 4:56 PM)100% (Apr 20, 11:56 PM)30.09 "Hg (Apr 20, 11:56 PM)
Low53 °F (May 3, 5:56 AM)33% (Apr 23, 2:56 PM)29.63 "Hg (Apr 27, 8:56 AM)
Average71 °F73%29.88 "Hg
* Reported Apr 20 11:56 AM — May 5 11:56 AM, Shreveport, Weather by CustomWeather, © 2016

Note: Actual official high and low records may vary slightly from our data, if they occured in-between our weather recording intervals... More about our weather records

Advertising

Shreveport Weather History for the Previous 24 Hours

Scroll right to see more
 ConditionsComfort  
Time TempWeatherWind HumidityBarometerVisibility
11:56 AM
Thu, May 5
75 °FSunny.9 mph36%30.03 "Hg10 mi
10:56 AM73 °FSunny.8 mph38%30.04 "Hg10 mi
9:56 AM71 °FSunny.8 mph44%30.04 "Hg10 mi
8:56 AM67 °FSunny.6 mph53%30.03 "Hg10 mi
7:56 AM61 °FSunny.6 mph67%30.02 "Hg10 mi
6:56 AM54 °FClear.3 mph83%30.00 "Hg10 mi
5:56 AM55 °FClear.3 mph80%29.98 "Hg10 mi
4:56 AM59 °FClear.3 mph69%29.96 "Hg10 mi
3:56 AM62 °FClear.5 mph62%29.94 "Hg10 mi
2:56 AM61 °FClear.6 mph72%29.94 "Hg10 mi
1:56 AM63 °FClear.6 mph73%29.94 "Hg10 mi
12:56 AM65 °FClear.5 mph70%29.93 "Hg10 mi
11:56 PM
Wed, May 4
69 °FClear.8 mph59%29.92 "Hg10 mi
10:56 PM70 °FClear.8 mph55%29.90 "Hg10 mi
9:56 PM67 °FClear.7 mph66%29.90 "Hg10 mi
8:56 PM71 °FSunny.8 mph55%29.89 "Hg10 mi
7:56 PM74 °FPassing clouds.8 mph48%29.88 "Hg10 mi
6:56 PM79 °FPassing clouds.10 mph39%29.88 "Hg10 mi
5:56 PM81 °FPassing clouds.16 mph35%29.87 "Hg10 mi
4:56 PM81 °FPassing clouds.17 mph35%29.87 "Hg10 mi
3:56 PM81 °FPassing clouds.13 mph35%29.89 "Hg10 mi
2:56 PM80 °FPassing clouds.17 mph36%29.91 "Hg10 mi
1:56 PM80 °FPassing clouds.15 mph36%29.94 "Hg10 mi
Weather by CustomWeather, © 2016

See weather overviewHow to use our weather pages